OE5ERN-10 Weather Reports


time (UTC)temp
F
wind
direction
speed
knots
gust
knots
rain 1hr
in
rain 24hr
in
rain mn
in
humidity
%
barometer
mb
20260506061031 77 315 0.0 0.0 0.00 0.04 0.00 56 1012.5
20260506051031 58 292 0.0 0.0 0.00 0.04 0.00 85 1012.2
20260506044031 53 315 0.0 0.0 0.00 0.04 0.00 85 1012.4
20260506042531 51 315 0.0 0.0 0.00 0.04 0.00 85 1012.6
20260506041031 51 292 0.0 0.0 0.00 0.04 0.00 85 1012.7
20260506035531 49 315 0.0 0.0 0.00 0.04 0.00 85 1012.7
20260506034031 49 315 0.0 0.0 0.00 0.04 0.00 85 1012.8
20260506032531 49 292 0.0 1.7 0.00 0.04 0.00 85 1012.7
20260506031031 50 292 0.9 1.7 0.00 0.04 0.00 85 1012.5
20260506025531 50 315 1.7 1.7 0.00 0.04 0.00 85 1012.6
20260506024031 50 315 0.0 0.0 0.00 0.04 0.00 85 1012.4
20260506022531 51 315 1.7 1.7 0.00 0.04 0.00 85 1012.6
20260506021031 51 315 0.0 0.0 0.00 0.04 0.00 85 1012.5
20260506015531 51 292 0.9 0.9 0.00 0.04 0.00 85 1012.5
20260506014031 52 225 0.0 0.0 0.00 0.04 0.00 85 1012.4
20260506012531 53 225 0.0 0.0 0.00 0.04 0.00 85 1012.5
20260506011031 54 225 0.0 0.0 0.00 0.04 0.00 84 1012.8
20260506005531 54 225 0.0 1.7 0.00 0.04 0.00 84 1013.0
20260506004031 55 202 0.0 0.9 0.00 0.04 0.00 85 1012.7
20260506002531 55 180 0.9 0.9 0.00 0.04 0.00 84 1012.4
20260506001031 55 180 2.6 2.6 0.00 0.04 0.00 84 1012.4
20260505235531 55 180 3.5 3.5 0.00 0.04 0.00 84 1012.3
20260505234031 55 247 0.0 0.0 0.00 0.04 0.00 84 1012.2
20260505232531 55 270 0.9 0.9 0.00 0.04 0.00 84 1012.1
20260505231031 55 337 0.0 0.0 0.00 0.04 0.00 84 1012.0
20260505225531 55 315 0.0 2.6 0.00 0.04 0.00 84 1012.0
20260505224031 54 270 0.0 0.0 0.00 0.04 0.00 84 1011.9
20260505222531 54 270 0.0 0.0 0.00 0.04 0.00 83 1011.5
20260505221031 54 292 0.0 0.0 0.00 0.04 0.00 82 1011.5
20260505215531 54 292 0.9 1.7 0.00 0.04 0.00 81 1011.2
20260505214031 55 292 0.0 0.9 0.00 0.04 0.00 81 1010.9
20260505212531 56 270 0.0 0.0 0.00 0.04 0.00 80 1010.7
20260505211031 57 292 0.0 0.0 0.00 0.04 0.00 79 1010.5
20260505205532 58 315 0.0 0.0 0.00 0.04 0.00 80 1010.3
20260505204032 57 112 2.6 2.6 0.02 0.04 0.00 82 1010.4
20260505202532 57 180 0.0 0.0 0.02 0.04 0.00 82 1010.2
20260505201032 56 180 2.6 2.6 0.04 0.04 0.00 82 1010.0
20260505195532 57 45 0.0 12.2 0.04 0.04 0.00 82 1009.2
20260505194032 57 315 3.5 6.1 0.02 0.02 0.00 80 1009.4
20260505192532 58 292 4.3 10.4 0.02 0.02 0.00 77 1009.7
20260505191032 58 292 17.4 17.4 0.00 0.00 0.00 75 1009.8
20260505185532 60 270 7.0 7.0 0.00 0.00 0.00 69 1009.4
20260505184032 62 292 16.5 16.5 0.00 0.00 0.00 64 1009.1
20260505182533 67 270 16.5 16.5 0.00 0.00 0.00 53 1008.7
20260505181032 70 270 13.9 13.9 0.00 0.00 0.00 47 1008.3
20260505175532 71 270 0.0 3.5 0.00 0.00 0.00 44 1007.9
20260505174032 73 315 2.6 3.5 0.00 0.00 0.00 42 1006.9
20260505172532 75 292 0.9 1.7 0.00 0.00 0.00 39 1006.7
20260505171032 78 292 1.7 1.7 0.00 0.00 0.00 35 1007.0
20260505165532 79 315 0.9 0.9 0.00 0.00 0.00 34 1006.8
20260505164032 80 112 0.0 0.0 0.00 0.00 0.00 31 1006.8
20260505162532 81 157 0.0 2.6 0.00 0.00 0.00 30 1006.9
20260505161032 82 112 0.0 0.0 0.00 0.00 0.00 29 1007.1
20260505152532 85 112 0.0 1.7 0.00 0.00 0.00 26 1007.3
20260505151032 83 45 0.0 1.7 0.00 0.00 0.00 25 1007.4
20260505124032 89 292 0.0 2.6 0.00 0.00 0.00 26 1009.0
20260505122532 90 90 0.9 0.9 0.00 0.00 0.00 26 1009.1
20260505121032 92 270 0.0 0.0 0.00 0.00 0.00 25 1009.4
20260505115532 90 270 0.9 0.9 0.00 0.00 0.00 27 1009.6
20260505114032 90 247 1.7 1.7 0.00 0.00 0.00 25 1009.7
20260505112532 89 292 1.7 1.7 0.00 0.00 0.00 28 1009.9
20260505111032 88 225 2.6 3.5 0.00 0.00 0.00 29 1010.1
20260505101032 94 270 1.7 2.6 0.00 0.00 0.00 25 1010.8
20260505095532 98 270 0.9 0.9 0.00 0.00 0.00 23 1010.9
20260505094032 102 225 0.0 3.5 0.00 0.00 0.00 22 1011.2
20260505092532 106 225 0.0 0.0 0.00 0.00 0.00 21 1011.3
20260505091033 105 247 0.0 2.6 0.00 0.00 0.00 21 1011.4
20260505085533 104 202 0.0 2.6 0.00 0.00 0.00 22 1011.8
20260505084033 103 270 3.5 3.5 0.00 0.00 0.00 22 1011.9
20260505082533 103 247 0.0 4.3 0.00 0.00 0.00 23 1012.0
20260505081033 100 225 0.0 1.7 0.00 0.00 0.00 24 1012.0
20260505075533 102 180 3.5 3.5 0.00 0.00 0.00 23 1012.1
20260505074033 100 180 0.0 1.7 0.00 0.00 0.00 25 1012.3
20260505072533 95 90 0.0 2.6 0.00 0.00 0.00 26 1012.2
20260505071033 101 90 1.7 1.7 0.00 0.00 0.00 25 1012.4